EW6414 Weather Reports


time (UTC)temp
F
wind
direction
speed
knots
gust
knots
rain 1hr
in
rain 24hr
in
rain mn
in
humidity
%
barometer
mb
20260506070254 51 22 0.0 0.0 0.00 0.00 0.00 96 980.3
20260506062207 51 22 0.0 0.0 0.00 0.00 0.00 95 980.3
20260506061155 51 22 0.0 0.0 0.00 0.00 0.00 95 980.3
20260506060648 51 22 0.0 0.0 0.00 0.00 0.00 94 980.2
20260506060142 51 22 0.0 0.0 0.00 0.00 0.00 94 980.1
20260506051042 51 22 0.0 0.0 0.00 0.00 0.00 92 979.9
20260506050537 51 22 0.0 0.0 0.00 0.00 0.00 91 979.8
20260506045019 52 21 0.0 0.0 0.00 0.00 0.00 91 979.7
20260506044513 53 0 0.0 0.0 0.00 0.00 0.00 91 979.7
20260506044007 53 0 0.0 0.0 0.00 0.00 0.00 90 979.6
20260506042955 53 0 0.0 0.0 0.00 0.00 0.00 89 979.4
20260506042449 54 0 0.0 0.0 0.00 0.00 0.00 88 979.3
20260506041943 54 0 0.0 0.0 0.00 0.00 0.00 88 979.3
20260506041437 55 0 0.0 0.0 0.00 0.00 0.00 88 979.2
20260506040931 55 0 0.0 0.0 0.00 0.00 0.00 88 979.2
20260506040425 55 0 0.0 0.0 0.00 0.00 0.00 88 979.2
20260506035413 56 339 0.0 0.0 0.00 0.00 0.00 87 979.0
20260506034906 56 339 0.0 0.0 0.00 0.00 0.00 86 979.0
20260506034401 56 338 0.0 0.0 0.00 0.00 0.00 86 978.9
20260506033855 57 337 0.9 1.7 0.00 0.00 0.00 85 978.7
20260506033349 57 346 1.7 2.6 0.00 0.00 0.00 85 978.6
20260506032843 57 332 1.7 2.6 0.00 0.00 0.00 84 978.6
20260506032337 58 330 0.9 2.6 0.00 0.00 0.00 83 978.6
20260506031834 58 330 0.9 3.5 0.00 0.00 0.00 83 978.5
20260506031333 59 347 0.9 3.5 0.00 0.00 0.00 82 978.4
20260506030832 59 325 0.9 2.6 0.00 0.00 0.00 82 978.5
20260506030333 59 319 0.9 2.6 0.00 0.00 0.00 82 978.5
20260506025833 60 277 0.9 3.5 0.00 0.00 0.00 81 978.4
20260506025332 60 271 0.9 3.5 0.00 0.00 0.00 81 978.3
20260506024832 60 260 0.9 5.2 0.00 0.00 0.00 81 978.3
20260506024330 60 277 1.7 5.2 0.00 0.00 0.00 80 978.4
20260506023829 60 280 1.7 3.5 0.00 0.00 0.00 80 978.3
20260506023331 61 292 0.9 3.5 0.00 0.00 0.00 79 978.3
20260506022831 61 277 0.9 3.5 0.00 0.00 0.00 79 978.3
20260506022331 61 284 1.7 4.3 0.00 0.00 0.00 79 978.2
20260506021831 62 265 2.6 6.1 0.00 0.00 0.00 78 978.2
20260506021331 62 243 2.6 6.1 0.00 0.00 0.00 77 978.2
20260506020831 62 225 2.6 6.1 0.00 0.00 0.00 77 978.2
20260506020325 62 278 1.7 6.1 0.00 0.00 0.00 78 978.1
20260506015827 62 254 2.6 6.1 0.00 0.00 0.00 77 978.1
20260506014825 62 214 1.7 6.1 0.00 0.00 0.00 79 978.1
20260506013327 63 208 3.5 7.8 0.00 0.00 0.00 77 978.0
20260506012825 63 232 3.5 7.8 0.00 0.00 0.00 77 978.0
20260506012327 63 253 2.6 8.7 0.00 0.00 0.00 76 977.9
20260506011826 64 298 2.6 8.7 0.00 0.00 0.00 76 978.0
20260506011326 64 279 1.7 7.0 0.00 0.00 0.00 76 977.9
20260506010825 64 209 2.6 7.0 0.00 0.00 0.00 76 977.9
20260506005325 64 200 2.6 6.1 0.00 0.00 0.00 76 977.8
20260506004825 64 189 3.5 7.8 0.00 0.00 0.00 77 977.8
20260506004326 63 139 3.5 7.8 0.00 0.00 0.00 79 977.9
20260506003827 63 37 2.6 7.8 0.00 0.00 0.00 80 978.0
20260506002308 62 246 2.6 7.0 0.00 0.00 0.00 77 977.9
20260506001802 62 286 3.5 7.8 0.00 0.00 0.00 80 977.9
20260506001256 62 238 4.3 7.8 0.00 0.00 0.00 78 978.0
20260506000750 62 240 4.3 9.6 0.00 0.00 0.00 78 978.0
20260506000243 62 221 4.3 9.6 0.00 0.00 0.00 78 978.0
20260505235739 62 226 3.5 7.8 0.00 0.00 0.00 77 978.0
20260505234725 62 223 3.5 8.7 0.00 0.00 0.00 78 978.2
20260505234218 62 270 2.6 11.3 0.00 0.00 0.00 79 978.2
20260505233206 62 241 5.2 11.3 0.00 0.00 0.00 77 978.2
20260505232700 62 232 4.3 11.3 0.00 0.00 0.00 78 978.2
20260505232154 62 253 4.3 9.6 0.00 0.00 0.00 78 978.2
20260505231648 62 219 5.2 9.6 0.00 0.00 0.00 77 978.1
20260505231142 62 215 4.3 8.7 0.00 0.00 0.00 76 978.2
20260505230636 62 221 4.3 11.3 0.00 0.00 0.00 77 978.2
20260505230130 62 244 4.3 11.3 0.00 0.00 0.00 78 978.2
20260505225623 62 61 5.2 13.0 0.00 0.00 0.00 77 978.3
20260505225116 62 270 6.1 13.0 0.00 0.00 0.00 76 978.3
20260505223052 63 264 4.3 10.4 0.00 0.00 0.00 77 978.4
20260505222546 63 311 3.5 8.7 0.00 0.00 0.00 76 978.4
20260505222040 63 283 4.3 12.2 0.00 0.00 0.00 76 978.5
20260505221534 63 236 6.1 12.2 0.00 0.00 0.00 76 978.5
20260505221027 64 223 5.2 11.3 0.00 0.00 0.00 75 978.5
20260505220522 64 212 6.1 12.2 0.00 0.00 0.00 73 978.4
20260505220016 64 269 5.2 13.0 0.00 0.00 0.00 75 978.5
20260505215510 64 250 6.1 13.0 0.00 0.00 0.00 73 978.5
20260505215004 64 241 6.1 12.2 0.00 0.00 0.00 74 978.6
20260505214458 64 232 6.1 12.2 0.00 0.00 0.00 74 978.5
20260505213952 65 235 5.2 12.2 0.00 0.00 0.00 73 978.6
20260505213446 65 263 5.2 10.4 0.00 0.00 0.00 74 978.5
20260505212940 65 261 5.2 10.4 0.00 0.00 0.00 75 978.6
20260505212434 65 274 6.1 12.2 0.00 0.00 0.00 75 978.5
20260505211928 65 239 6.1 13.0 0.00 0.00 0.00 73 978.5
20260505211422 65 199 5.2 13.0 0.00 0.00 0.00 73 978.6
20260505210916 65 201 4.3 10.4 0.00 0.00 0.00 75 978.6
20260505210409 65 241 5.2 10.4 0.00 0.00 0.00 73 978.5
20260505205904 65 215 5.2 9.6 0.00 0.00 0.00 72 978.6
20260505205358 65 287 5.2 10.4 0.00 0.00 0.00 72 978.6
20260505204852 65 251 5.2 10.4 0.00 0.00 0.00 75 978.6
20260505204346 65 276 5.2 9.6 0.00 0.00 0.00 72 978.6
20260505203840 65 300 4.3 8.7 0.00 0.00 0.00 77 978.6
20260505203334 64 280 4.3 9.6 0.00 0.00 0.00 75 978.7
20260505202828 64 257 4.3 9.6 0.00 0.00 0.00 76 978.6
20260505202322 63 250 3.5 8.7 0.00 0.00 0.00 78 978.7
20260505201817 63 227 3.5 7.8 0.00 0.00 0.00 78 978.7
20260505200804 63 248 3.5 7.0 0.00 0.00 0.00 77 978.8
20260505200304 63 250 3.5 8.7 0.00 0.00 0.00 76 978.8
20260505195804 63 163 3.5 8.7 0.00 0.00 0.00 77 978.9
20260505194803 63 288 2.6 7.0 0.00 0.00 0.00 76 978.9
20260505194303 62 211 3.5 8.7 0.00 0.00 0.00 82 978.9
20260505193803 62 227 4.3 8.7 0.00 0.00 0.00 80 978.9
20260505193304 62 219 4.3 8.7 0.00 0.00 0.00 76 978.9
20260505192803 63 259 3.5 7.8 0.00 0.00 0.00 75 979.0
20260505192305 63 238 4.3 7.8 0.00 0.00 0.00 78 979.0
20260505191802 63 246 4.3 7.8 0.00 0.00 0.00 80 978.9
20260505191303 62 243 4.3 9.6 0.00 0.00 0.00 83 978.9
20260505190802 61 182 3.5 9.6 0.00 0.00 0.00 82 978.9
20260505190300 61 205 3.5 8.7 0.00 0.00 0.00 81 979.0
20260505185758 60 266 3.5 10.4 0.00 0.00 0.00 81 979.0
20260505185300 60 161 3.5 10.4 0.00 0.00 0.00 82 979.0
20260505184759 60 316 2.6 7.8 0.00 0.00 0.00 82 979.0
20260505184301 60 267 3.5 7.8 0.00 0.00 0.00 83 979.1
20260505183754 60 268 3.5 7.0 0.00 0.00 0.00 85 979.1
20260505183255 59 184 3.5 7.0 0.00 0.00 0.00 87 979.2
20260505182755 59 242 3.5 7.0 0.00 0.00 0.00 84 979.2
20260505182255 58 197 3.5 7.0 0.00 0.00 0.00 87 979.2
20260505181755 58 198 3.5 7.8 0.00 0.00 0.00 88 979.1
20260505181255 57 235 3.5 7.8 0.00 0.00 0.00 87 979.1
20260505180754 57 254 3.5 7.0 0.00 0.00 0.00 86 979.1
20260505180254 57 287 3.5 7.0 0.00 0.00 0.00 89 979.1
20260505175755 57 229 2.6 6.1 0.00 0.00 0.00 88 979.1
20260505174755 56 201 3.5 7.0 0.00 0.00 0.00 89 979.1
20260505174255 56 271 2.6 7.0 0.00 0.00 0.00 91 979.1
20260505173754 56 184 2.6 7.0 0.00 0.00 0.00 90 979.1
20260505173256 56 188 1.7 6.1 0.00 0.00 0.00 92 979.1
20260505172755 55 198 1.7 6.1 0.00 0.00 0.00 92 979.0
20260505172256 55 155 2.6 5.2 0.00 0.00 0.00 94 979.0
20260505171756 55 261 2.6 5.2 0.00 0.00 0.00 92 979.0
20260505171256 54 199 2.6 5.2 0.00 0.00 0.00 93 979.0
20260505170755 54 257 1.7 6.1 0.00 0.00 0.00 93 979.0
20260505170256 54 266 2.6 6.1 0.00 0.00 0.00 95 979.0
20260505165755 53 244 2.6 4.3 0.00 0.00 0.00 94 979.0
20260505165254 53 233 2.6 4.3 0.00 0.00 0.00 94 979.0
20260505164754 53 175 2.6 6.1 0.00 0.00 0.00 94 979.0
20260505164255 53 254 2.6 6.1 0.00 0.00 0.00 94 979.1
20260505163756 53 276 2.6 4.3 0.00 0.00 0.00 95 979.0
20260505163255 53 212 2.6 4.3 0.00 0.00 0.00 96 979.0
20260505162756 53 257 2.6 5.2 0.00 0.00 0.00 96 979.0
20260505162254 53 247 1.7 5.2 0.00 0.00 0.00 96 979.0
20260505161754 53 231 1.7 4.3 0.00 0.00 0.00 97 979.1
20260505161254 53 219 1.7 4.3 0.00 0.00 0.00 97 979.1
20260505160754 53 205 1.7 3.5 0.00 0.00 0.00 97 979.0
20260505153219 52 243 1.7 3.5 0.00 0.00 0.00 97 979.0
20260505152713 52 232 1.7 3.5 0.00 0.00 0.00 97 978.9
20260505152206 52 205 1.7 3.5 0.00 0.00 0.00 97 978.9
20260505151700 52 219 1.7 3.5 0.00 0.00 0.00 98 978.8
20260505151156 52 245 0.9 3.5 0.00 0.00 0.00 97 978.8
20260505150649 52 254 0.9 2.6 0.00 0.00 0.00 98 978.8
20260505150144 52 194 0.9 3.5 0.00 0.00 0.00 98 978.8
20260505140537 51 220 0.9 2.6 0.00 0.00 0.00 97 978.3
20260505124907 51 251 0.9 3.5 0.00 0.00 0.00 96 978.1
20260505124401 51 236 0.0 0.0 0.00 0.00 0.00 96 978.0
20260505123856 51 250 0.0 0.0 0.00 0.00 0.00 96 977.9
20260505122842 51 246 0.0 0.0 0.00 0.00 0.00 96 977.9
20260505122337 51 246 0.0 1.7 0.00 0.00 0.00 96 977.9
20260505121325 51 257 0.9 2.6 0.00 0.00 0.00 96 977.8
20260505120819 51 257 0.9 2.6 0.00 0.00 0.00 96 977.8
20260505120313 51 280 0.0 1.7 0.00 0.00 0.00 96 977.8
20260505115807 51 261 0.0 0.0 0.00 0.00 0.00 96 977.8
20260505115301 51 261 0.0 0.0 0.00 0.00 0.00 96 977.7
20260505114755 51 261 0.0 0.0 0.00 0.00 0.00 96 977.7
20260505114249 51 261 0.0 0.0 0.00 0.00 0.00 96 977.7
20260505113237 51 261 0.0 0.0 0.00 0.00 0.00 96 977.7
20260505112731 51 261 0.0 0.0 0.00 0.00 0.00 95 977.7
20260505112225 51 261 0.0 0.0 0.00 0.00 0.00 96 977.7
20260505111720 51 261 0.0 0.0 0.00 0.00 0.00 95 977.7
20260505111213 51 261 0.0 1.7 0.00 0.00 0.00 95 977.7
20260505110707 51 241 0.0 1.7 0.00 0.00 0.00 95 977.7
20260505101605 52 286 0.9 3.5 0.00 0.00 0.00 94 977.6
20260505101106 52 260 1.7 3.5 0.00 0.00 0.00 93 977.6
20260505100606 52 261 0.9 2.6 0.00 0.00 0.00 93 977.6
20260505100105 52 242 0.9 2.6 0.00 0.00 0.00 93 977.5
20260505095606 52 266 0.0 1.7 0.00 0.00 0.00 92 977.5
20260505094605 53 246 1.7 3.5 0.00 0.00 0.00 92 977.4
20260505094105 53 263 0.9 3.5 0.00 0.00 0.00 91 977.3
20260505093607 53 242 0.9 2.6 0.00 0.00 0.00 90 977.2
20260505093107 53 263 1.7 2.6 0.00 0.00 0.00 90 977.2
20260505092107 53 273 1.7 4.3 0.00 0.00 0.00 90 977.1
20260505091607 53 248 1.7 4.3 0.00 0.00 0.00 89 977.1
20260505091102 53 277 1.7 3.5 0.00 0.00 0.00 89 977.1
20260505090602 53 254 0.9 3.5 0.00 0.00 0.00 89 977.1
20260505085601 53 306 1.7 5.2 0.00 0.00 0.00 89 977.1
20260505085101 53 237 2.6 5.2 0.00 0.00 0.00 89 977.0
20260505084601 53 263 2.6 7.8 0.00 0.00 0.00 89 977.0
20260505084101 53 252 2.6 7.8 0.00 0.00 0.00 89 977.0
20260505083602 54 269 3.5 6.1 0.00 0.00 0.00 89 977.0
20260505083103 54 242 3.5 6.1 0.00 0.00 0.00 89 977.0
20260505082602 54 283 3.5 7.0 0.00 0.00 0.00 88 977.0
20260505082103 54 243 2.6 7.0 0.00 0.00 0.00 88 976.9
20260505081602 54 247 2.6 7.0 0.00 0.00 0.00 88 977.0
20260505080602 54 305 2.6 6.1 0.00 0.00 0.00 88 976.8
20260505080103 55 277 2.6 5.2 0.00 0.00 0.00 88 976.8
20260505075602 55 211 2.6 7.0 0.00 0.00 0.00 88 976.8
20260505075101 55 248 2.6 7.0 0.00 0.00 0.00 88 976.8
20260505074602 55 292 1.7 6.1 0.00 0.00 0.00 88 976.8
20260505074056 55 240 1.7 6.1 0.00 0.00 0.00 88 976.7
20260505073550 55 265 1.7 6.1 0.00 0.00 0.00 87 976.7
20260505072538 56 247 1.7 5.2 0.00 0.00 0.00 87 976.7
20260505072032 56 257 2.6 6.1 0.00 0.00 0.00 87 976.6
20260505071526 56 250 2.6 7.0 0.00 0.00 0.00 87 976.6
20260505071023 56 288 1.7 7.0 0.00 0.00 0.00 86 976.6